www.pogodaiklimat.ru
ПОГОДА в Хогевене

Архив погоды в Хогевене (Нидерланды)

Время
(UTC), дата
07 18.01
08 18.01
09 18.01
10 18.01
11 18.01
12 18.01
13 18.01
14 18.01
15 18.01
16 18.01
17 18.01
18 18.01
19 18.01
20 18.01
21 18.01
22 18.01
23 18.01
00 19.01
01 19.01
02 19.01
03 19.01
04 19.01
05 19.01
06 19.01
07 19.01
08 19.01
09 19.01
10 19.01
11 19.01
12 19.01
13 19.01
14 19.01
15 19.01
16 19.01
17 19.01
18 19.01
19 19.01
20 19.01
21 19.01
22 19.01
23 19.01
00 20.01
01 20.01
02 20.01
03 20.01
04 20.01
05 20.01
06 20.01
07 20.01
08 20.01
09 20.01
10 20.01
11 20.01
12 20.01
13 20.01
14 20.01
15 20.01
16 20.01
17 20.01
18 20.01
19 20.01
20 20.01
21 20.01
22 20.01
23 20.01
00 21.01
01 21.01
02 21.01
03 21.01
04 21.01
05 21.01
06 21.01
07 21.01
08 21.01
09 21.01
10 21.01
11 21.01
12 21.01
13 21.01
14 21.01
15 21.01
16 21.01
17 21.01
18 21.01
19 21.01
20 21.01
21 21.01
22 21.01
23 21.01
00 22.01
01 22.01
02 22.01
03 22.01
04 22.01
05 22.01
06 22.01
07 22.01
08 22.01
09 22.01
10 22.01
11 22.01
12 22.01
13 22.01
14 22.01
15 22.01
16 22.01
17 22.01
18 22.01
19 22.01
20 22.01
21 22.01
22 22.01
23 22.01
00 23.01
01 23.01
02 23.01
03 23.01
04 23.01
05 23.01
06 23.01
07 23.01
08 23.01
09 23.01
10 23.01
11 23.01
12 23.01
13 23.01
14 23.01
15 23.01
16 23.01
17 23.01
18 23.01
19 23.01
20 23.01
21 23.01
22 23.01
23 23.01
00 24.01
01 24.01
02 24.01
03 24.01
04 24.01
05 24.01
06 24.01
07 24.01
08 24.01
09 24.01
10 24.01
11 24.01
12 24.01
13 24.01
14 24.01
15 24.01
16 24.01
17 24.01
18 24.01
19 24.01
20 24.01
21 24.01
22 24.01
23 24.01
00 25.01
01 25.01
02 25.01
03 25.01
04 25.01
05 25.01
06 25.01
07 25.01
Ветер
(напр.,м/с)
Видим. Явления Облачность Т
(С)
Тd
(С)
f
(%)
Тe
(С)
Тes
(С)
Комфортность P
(гПа)
Po
(гПа)
Тmin
(С)
Tmax
(С)
R
(мм)
R24
(мм)
S
(см)
Ю 1 12 км 10/10 300 м +5.0 +4.8 99 +3 +3 1038.0 1035.7
ЮЗ 2 9000 м дымка 10/10 300 м +5.2 +5.2 100 +2 +2 1038.2 1036.0
ЮЗ 2-4
{4}
11 км 10 баллов +5.5 +5.4 99 +3 +3 1038.6 1036.4
ЮЗ 2 12 км 10/10 300 м +6.0 +5.7 98 +3 +3 1038.6 1036.4
ЮЗ 3 22 км 10/10 300 м +6.1 +5.4 95 +3 +3 1038.7 1036.5
ЮЗ 3-4
{4}
30 км 10 баллов +6.4 +4.8 89 +3 +3 1038.5 1036.2
З 4 35 км 10/10 300 м +6.0 +4.3 89 +2 +2 1038.1 1036.0
ЮЗ 3 26 км 10/10 200 м +5.7 +4.7 93 +2 +2 1037.5 1035.4
ЮЗ 3-4
{6}
15 км 10 баллов +5.7 +5.0 95 +2 +2 1037.0 1034.8
ЮЗ 3 3700 м дымка 10/10 100 м +4.8 +4.7 99 +1 +1 1036.7 1034.5
ЮЗ 3 2100 м дымка 10/10 50 м +4.5 +4.5 100 +1 +1 1036.4 1034.2
ЮЗ 2-4
{6}
3000 м дымка 10 баллов +4.6 +4.5 99 +2 +2 1036.1 1033.9 +6.5
ЮЗ 3 2000 м дымка 10/10 50 м +4.3 +4.2 99 0 0 1036.3 1034.0
З 4 3200 м дымка 10/10 50 м +3.8 +3.7 99 -1 -1 1036.5 1034.3
ЮЗ 4-5
{6}
3200 м дымка 10 баллов +4.0 +4.0 100 -1 -1 1035.6 1033.6
ЮЗ 4-6
{7}
3100 м дымка 10/10 100 м +4.3 +4.2 99 -0 -0 1034.9 1032.7
ЮЗ 4-6
{6}
3000 м дымка 10/10 100 м +4.3 +4.1 99 -0 -0 1033.9 1031.8
З 1-3
{7}
3300 м дымка 10 баллов +4.4 +4.3 99 +3 +3 1033.1 1031.1
Ю 2-3
{4}
3700 м дымка 10/9 200 м +3.5 +3.1 97 0 0 1031.5 1029.2
Ю 3-5
{5}
1600 м дымка 10/10 100 м +3.7 +3.6 99 -0 -0 1030.1 1027.9
ЮЗ 2-3
{5}
200 м туман ?/? +3.6 +3.5 99 0 0 1028.9 1026.9
ЮЗ 3 400 м туман ?/? +2.2 +2.1 99 -2 -2 1027.6 1025.6
З 1 200 м туман 10/10 <50 м +1.1 +1.0 99 -1 -1 1027.4 1025.2
ЮЗ 2-4
{5}
500 м туман 10 баллов +1.5 +1.5 100 -2 -2 1026.6 1024.5 +0.3
Ю 3 4500 м в посл. час туман 10/10 300 м +2.0 +1.9 99 -3 -3 1025.5 1023.4
ЮЗ 4 5000 м дымка 10/10 300 м +2.3 +2.1 99 -3 -3 1024.9 1022.7
ЮЗ 5-6
{8}
5000 м дымка 10 баллов +2.6 +2.3 98 -3 -3 1023.9 1021.9
ЮЗ 4 4400 м дымка 10/10 600 м +3.2 +2.9 98 -2 -2 1023.0 1020.9
ЮЗ 5 3900 м дымка 10/10 300 м +3.6 +3.1 97 -2 -2 1022.0 1020.0
ЮЗ 5-7
{8}
2900 м дымка 10 баллов +3.7 +3.4 98 -2 -2 1020.7 1018.7
ЮЗ 6 3400 м дымка 10/10 200 м +4.0 +3.5 97 -2 -2 1019.5 1017.4
ЮЗ 5 4100 м дымка 10/10 200 м +4.5 +4.0 97 -1 -1 1018.3 1016.1
ЮЗ 6-10
{10}
3600 м слаб. ливневой дождь 10 баллов +4.9 +4.3 96 -1 -1 1017.7 1015.6 0.3
ЮЗ 7-10
{10}
2500 м слаб. ливневой дождь 10/10 200 м +5.1 +4.9 99 -1 -1 1017.8 1015.8 0.3
З 5 5000 м в посл. час дождь 10/6 300 м +6.1 +5.9 99 +2 +2 1017.9 1015.7 0.1
СЗ 5-7
{10}
15 км в посл. час морось 10 баллов +6.6 +5.4 92 +2 +2 1018.3 1016.0 +6.7 0.7
З 4 16 км 3/1 600 м +5.6 +4.3 91 +2 +2 1018.8 1016.6
СЗ 6 22 км в посл. час дождь 6/6 1500 м +5.2 +3.0 86 0 0 1019.8 1017.6
З 4-6
{12}
20 км ясно +4.4 +2.7 89 0 0 1020.6 1018.6
З 4-6
{6}
19 км 4/4 1500 м +3.7 +2.3 91 -1 -1 1020.8 1018.6
З 4-7
{10}
20 км в посл. час дождь 9/9 1500 м +4.2 +2.1 86 -0 -0 1021.1 1018.9
З 6-9
{12}
12 км слаб. ливневой дождь 9 баллов +4.4 +3.0 91 -1 -1 1021.1 1019.1 0.2
З 4-6
{8}
27 км в посл. час дождь 4/4 600 м +3.3 +2.4 94 -2 -2 1021.2 1018.9
З 5-8
{9}
40 км 5/5 2000 м +4.1 +2.7 91 -1 -1 1021.4 1019.1
СЗ 7-13
{13}
12 км слаб. ливневой дождь 9 баллов +4.1 +2.7 91 -2 -2 1021.7 1019.6 0.2
СЗ 5 16 км в посл. час дождь 9/6 1000 м +3.7 +1.9 88 -1 -1 1022.4 1020.1 0.1
СЗ 5 24 км в посл. час дождь 10/10 1500 м +3.4 -0.3 77 -2 -2 1022.8 1020.6
СЗ 7-13
{13}
26 км 4 балла +2.5 -1.3 76 -4 -4 1023.7 1021.5 +2.4 0.5 1.2
З 3 24 км слаб. ливневой снег 9/6 1000 м +1.8 -0.8 83 -2 -2 1024.5 1022.4
З 5 15 км в посл. час снег 8/6 1000 м +1.9 -0.4 85 -4 -4 1025.1 1022.9
СЗ 5-8
{13}
27 км 9 баллов +2.7 -0.6 79 -3 -2 1025.4 1023.1
СЗ 5 30 км в посл. час снег 9/8 1000 м +2.4 +0.6 88 -3 -3 1026.5 1024.0 0.1
С 8 3000 м дождь со снегом 9/6 600 м +1.5 0.0 90 -6 -6 1026.8 1024.7 0.5
СЗ 7-10
{14}
45 км в посл. час дождь 4 балла +3.6 +0.3 79 -2 -2 1026.2 1024.0 0.6
СЗ 8 30 км в посл. час дождь 3/1 300 м +4.0 -0.5 72 -2 -2 1026.0 1023.9
СЗ 7 35 км в посл. час снег 3/1 200 м +3.5 -0.3 76 -2 -2 1026.5 1024.3 0.1
СЗ 6-8
{16}
29 км ливневой снег 10 баллов +1.4 +0.5 94 -5 -5 1027.4 1025.2 0.7
СЗ 5 27 км в посл. час снег 8/8 1500 м +2.7 -0.3 81 -3 -3 1027.6 1025.3
СЗ 6 4800 м дождь со снегом 9/6 600 м +2.1 -0.3 84 -4 -4 1028.2 1025.8 0.2
СЗ 4-7
{16}
30 км в посл. час снег 4 балла +1.7 -0.1 88 -3 -3 1028.7 1026.5 +4.8 0.2
СЗ 4 26 км в посл. час снег 4/4 1000 м +1.6 +0.1 90 -4 -4 1029.4 1027.0 0.1
СЗ 4 30 км в посл. час снег 1/1 1000 м +1.2 -0.4 89 -4 -4 1029.7 1027.5 0.1
СЗ 5-7
{10}
27 км 3 балла +1.9 -0.7 83 -4 -4 1030.4 1028.4
З 3-4
{6}
27 км 3/3 1000 м +1.0 -0.6 89 -4 -4 1030.6 1028.3
СЗ 4-6
{7}
28 км в посл. час снег 5/4 1500 м +1.4 -0.1 90 -4 -4 1031.0 1028.8 0.1
З 5-6
{10}
22 км 6 баллов +1.6 +0.1 90 -4 -4 1031.5 1029.5 0.3
З 4-6
{6}
27 км 9/9 1500 м +1.9 +0.5 90 -3 -3 1031.5 1029.3
З 4-6
{6}
35 км 10/10 1500 м +1.8 +0.6 92 -3 -3 1031.7 1029.5
З 3-4
{11}
20 км в посл. час дождь 8 баллов +1.6 +0.7 94 -3 -3 1032.0 1029.7
З 4 30 км в посл. час снег 5/4 1000 м +1.4 +0.9 96 -4 -4 1031.8 1029.5 0.3
З 4 28 км 8/8 1000 м +1.2 +0.8 97 -4 -4 1031.8 1029.6
З 3-5
{11}
29 км 1 балл +0.8 +0.3 96 -4 -4 1032.0 1029.8 +0.5 0.6 2.6
З 4 29 км 10/10 1000 м +1.6 +1.1 96 -4 -4 1032.1 1030.1 0.1
З 3 28 км ясно +1.1 +0.6 96 -4 -3 1032.3 1030.1
З 3-4
{6}
30 км 6 баллов +2.4 +1.5 94 -2 -2 1032.5 1030.3
З 5 30 км 10/9 1000 м +3.5 +2.2 91 -2 -2 1032.4 1030.3
З 4 27 км в посл. час дождь 8/6 600 м +4.2 +3.7 97 -0 0 1032.4 1030.2 0.1
З 4-6
{7}
22 км в посл. час дождь 10 баллов +5.6 +4.9 95 +1 +2 1032.1 1029.9 0.2
СЗ 6 35 км 10/8 300 м +6.6 +4.9 89 +2 +2 1031.6 1029.4
СЗ 6 30 км 10/9 300 м +6.7 +4.6 86 +2 +2 1031.3 1029.1
СЗ 6-9
{11}
29 км 10 баллов +6.5 +4.7 88 +2 +2 1031.2 1029.1
З 6 24 км 10/10 300 м +6.3 +4.8 90 +2 +2 1030.9 1028.8
З 5 17 км 10/9 300 м +6.0 +5.0 93 +2 +2 1030.8 1028.6
СЗ 5-8
{11}
30 км 10 баллов +6.2 +5.0 92 +2 +2 1030.7 1028.6 +6.7 0.3
СЗ 5 40 км 10/10 300 м +6.2 +4.7 90 +2 +2 1030.7 1028.5
З 4 35 км 10/9 300 м +5.9 +4.5 91 +2 +2 1031.2 1029.0
З 5-6
{9}
4600 м морось 10 баллов +5.2 +4.9 98 0 0 1031.0 1028.8 0.1
З 4-6
{7}
2900 м морось 10/8 200 м +5.2 +5.2 100 +1 +1 1030.8 1028.6 0.3
З 5-8
{8}
3800 м слаб. морось 10/8 200 м +5.5 +5.4 99 +1 +1 1030.8 1028.6 0.2
З 5-6
{9}
3000 м морось 10 баллов +5.7 +5.7 100 +1 +1 1030.9 1028.9 0.7
З 5-7
{8}
4300 м морось 10/9 100 м +5.8 +5.8 100 +1 +1 1030.7 1028.5 0.1
З 5-8
{8}
3100 м в посл. час морось 10/9 100 м +6.0 +6.0 100 +1 +1 1030.9 1028.8 0.1
СЗ 5-8
{8}
25 км в посл. час морось 10 баллов +6.3 +6.2 99 +2 +2 1031.2 1028.9 0.1
СЗ 4 4300 м морось 10/9 200 м +6.1 +6.1 100 +2 +2 1031.3 1029.1
СЗ 4 3100 м морось 10/10 200 м +6.1 +6.0 99 +2 +2 1031.4 1029.1
СЗ 4-6
{8}
18 км в посл. час дождь 10 баллов +6.1 +6.0 99 +2 +2 1031.7 1029.4 +5.2 0.1 1.5
СЗ 3 2200 м дымка 10/10 100 м +6.0 +5.9 99 +3 +3 1032.1 1029.9
З 4 12 км в посл. час дождь 10/9 200 м +5.9 +5.9 100 +2 +2 1032.2 1030.0 0.2
СЗ 2-3
{7}
5000 м морось 10 баллов +5.8 +5.8 100 +3 +3 1032.6 1030.4 0.1
З 3 6000 м морось 10/6 200 м +6.0 +5.9 99 +3 +3 1033.0 1030.8 0.2
З 3 14 км в посл. час дождь 10/8 300 м +6.4 +6.3 99 +3 +3 1033.1 1030.8 0.1
З 3-4
{7}
6000 м слаб. ливневой дождь 10 баллов +6.3 +6.1 99 +3 +3 1033.1 1030.9 0.6
СЗ 4 8000 м в посл. час дождь 10/8 300 м +6.6 +6.1 97 +3 +3 1033.1 1030.9 0.1
З 3 25 км 10/10 600 м +6.6 +5.7 94 +3 +3 1033.1 1030.9
З 4 30 км 10/10 600 м +6.3 +5.5 95 +2 +2 1033.0 1030.8
З 3 30 км 10/8 300 м +6.0 +5.2 95 +3 +3 1033.4 1031.1
З 3 6000 м дымка 10/6 200 м +5.8 +5.5 98 +2 +2 1033.5 1031.3
З 3-4
{7}
45 км в посл. час дождь 10 баллов +5.6 +5.3 98 +2 +2 1033.7 1031.4 +6.7 0.7
З 3 30 км 10/10 600 м +5.6 +5.2 97 +2 +2 1033.8 1031.7
З 2 22 км 10/10 600 м +5.4 +5.2 99 +3 +3 1033.9 1031.7
З 3-4
{4}
25 км 10 баллов +5.3 +5.0 98 +2 +2 1033.9 1031.7
З 3-4
{5}
26 км 10/10 600 м +5.3 +5.1 99 +2 +2 1034.4 1032.0
З 3-4
{4}
22 км 10/10 600 м +5.2 +5.0 99 +2 +2 1034.3 1032.1
З 2-3
{5}
23 км 10 баллов +5.2 +5.1 99 +2 +2 1034.5 1032.3
З 2-3
{3}
16 км 10/10 600 м +5.2 +5.1 99 +2 +2 1034.5 1032.4
З 2-2
{3}
10 км 10/10 600 м +5.1 +5.1 100 +2 +2 1034.6 1032.3
З 2-3
{3}
8000 м дымка 10 баллов +5.1 +5.1 100 +2 +2 1034.7 1032.7
З 1 6000 м дымка 10/10 600 м +5.0 +5.0 100 +3 +3 1034.9 1032.7
ЮЗ 1 7000 м дымка 10/10 600 м +4.9 +4.8 99 +3 +3 1035.0 1032.7
штиль 0-1
{3}
9000 м дымка 10 баллов +4.8 +4.8 100 +4 +4 1035.1 1032.9 +4.8 0.7
З 2 6000 м дымка 10/10 600 м +4.8 +4.8 100 +2 +2 1035.4 1033.2
З 1 6000 м дымка 10/10 600 м +4.9 +4.8 99 +3 +3 1035.8 1033.7
ЮЗ 1-2
{2}
8000 м дымка 10 баллов +5.3 +5.3 100 +4 +4 1036.3 1034.1
ЮЗ 2 16 км 10/10 300 м +5.8 +5.6 99 +3 +3 1036.5 1034.2
ЮЗ 2 21 км 10/10 300 м +6.2 +5.5 95 +4 +4 1036.3 1034.2
ЮЗ 2-3
{3}
>70 км 10 баллов +6.5 +4.2 85 +4 +4 1036.1 1033.9
ЮЗ 3 >70 км 10/10 300 м +6.5 +3.8 83 +3 +3 1035.7 1033.5
ЮЗ 2 >70 км 10/10 300 м +6.5 +4.2 85 +4 +4 1035.7 1033.4
Ю 1-2
{5}
>70 км 10 баллов +6.1 +4.2 88 +5 +5 1035.8 1033.5
Ю 1 40 км 10/10 300 м +5.7 +4.5 92 +4 +4 1035.8 1033.6
Ю 1 50 км 10/10 600 м +5.7 +3.8 88 +4 +4 1035.9 1033.7
ЮЗ 1-2
{5}
50 км 10 баллов +5.3 +4.2 93 +4 +4 1035.8 1033.6 +6.6
Ю 1 55 км 10/10 300 м +5.3 +3.7 89 +4 +4 1036.0 1033.8
Ю 2 40 км 10/10 300 м +5.2 +3.5 89 +3 +3 1035.8 1033.6
Ю 2 40 км 10/10 300 м +5.1 +3.2 88 +2 +2 1035.5 1033.3
Ю 2-4
{4}
35 км 10/10 300 м +5.2 +2.7 84 +3 +3 1035.4 1033.2
Ю 1-2
{4}
30 км 10/10 300 м +5.0 +2.5 84 +4 +4 1035.7 1033.5
Ю 1-2
{4}
26 км 10 баллов +4.8 +2.5 85 +4 +4 1035.5 1033.5
Ю 2-3
{3}
26 км 10/10 300 м +4.7 +2.5 86 +2 +2 1035.5 1033.3
ЮЗ 2-3
{3}
22 км 10/10 300 м +4.6 +2.4 86 +2 +2 1035.1 1033.0
ЮЗ 1-2
{3}
19 км 10 баллов +4.5 +2.7 88 +3 +3 1034.9 1032.9
ЮЗ 1 18 км 10/10 300 м +4.6 +2.3 85 +3 +3 1034.9 1032.6
Ю 1 17 км 10/10 600 м +4.6 +2.1 84 +3 +3 1034.6 1032.4
Ю 1-1
{3}
11 км 10 баллов +4.4 +2.5 87 +3 +3 1034.6 1032.4 +4.3
ЮЗ 1 7000 м дымка 10/10 600 м +4.6 +2.0 83 +3 +3 1034.8 1032.6
Ю 2 6000 м дымка 10/10 600 м +4.5 +2.4 86 +2 +2 1034.9 1032.6
ЮЗ 2-2
{3}
6000 м дымка 10 баллов +4.7 +2.6 86 +2 +2 1035.1 1032.9
ЮЗ 2 7000 м дымка 10/10 300 м +4.7 +2.5 86 +2 +2 1035.3 1033.1
ЮЗ 2 11 км 10/10 300 м +4.8 +1.9 81 +2 +2 1035.2 1032.9
Ю 3-4
{4}
15 км 10 баллов +4.6 +1.5 80 +1 +1 1034.9 1032.7
ЮЗ 2 19 км 10/10 300 м +4.5 +1.3 80 +2 +2 1034.5 1032.4
З 2 20 км 10/10 300 м +4.4 +1.2 80 +2 +2 1034.1 1031.9
ЮЗ 1-2
{5}
12 км 10 баллов +4.3 +1.7 83 +3 +3 1034.0 1032.0
З 1 11 км 10/10 300 м +3.9 +1.7 86 +2 +2 1034.4 1032.2
штиль 0 14 км 10/10 300 м +3.9 +1.0 81 +3 +3 1034.7 1032.5
СЗ 1-2
{5}
12 км 10 баллов +3.7 +0.8 81 +2 +2 1034.8 1032.7 +4.9
СЗ 2 11 км 10/10 300 м +3.6 +0.8 82 +1 +1 1034.9 1032.8
СЗ 1 9000 м дымка 10/10 300 м +3.5 +0.9 83 +2 +2 1035.0 1032.7
З 1-2
{3}
8000 м дымка 10 баллов +3.5 +0.8 82 +2 +2 1035.0 1032.8
СЗ 2-2
{2}
7000 м дымка 10/10 300 м +3.3 +1.0 85 0 0 1035.0 1032.9
штиль 0-1
{2}
8000 м дымка 10/10 300 м +3.4 +0.7 82 +2 +2 1035.1 1032.9
С 1-3
{3}
8000 м дымка 10 баллов +3.4 +0.4 81 +2 +2 1035.2 1033.0
Ю 1-2
{2}
6000 м дымка 10/10 300 м +3.0 +1.0 87 +1 +1 1034.8 1032.7
Ю 2-2
{2}
6000 м дымка 10/10 300 м +2.9 +0.8 86 -0 -0 1034.7 1032.5
Ю 2-2
{3}
6000 м дымка 10/10 300 м +2.9 +0.8 86 -0 -0 1034.5 1032.5
ЮЗ 2 6000 м дымка 10/10 300 м +3.0 +0.8 85 0 0 1034.2 1032.0
ЮЗ 2 5000 м дымка 10/10 300 м +2.9 +1.0 87 -0 -0 1034.1 1031.9
ЮЗ 2 5000 м дымка 10/10 300 м +2.9 +1.2 89 -0 -0 1034.1 1031.9 +2.8
ЮЗ 2 5000 м дымка 10/10 300 м +3.0 +1.2 88 -0 -0 1034.3 1032.0
Местоположение метеостанции Хогевен (Нидерланды): широта 52.75 долгота 6.52 высота над уровнем моря 16 м.
В архиве по умолчанию представлена погода в Хогевене за последнюю неделю. Архивные данные за месяц целиком и за предыдущие месяцы, начиная с января 2011 года, Вы можете получить, выбрав интересующий диапазон дат из раскрывающегося списка и нажав кнопку "Найти!".
*Определитесь, кто Вы:
Внимание! Время в таблицах - всемирное. Для получения местного времени необходимо прибавить поправку, которая равна 1 ч.
Смотрите также архив погоды в соседних городах и на ближайших метеорологических станциях:
Партнеры нашего сайта:      
Пояснения к столбцам:
  • Ветер - указаны скорость ветра в м/с - средняя за 10 мин, порывы в срок и между сроками (в фигурных скобках) и направление, откуда дует ветер: С - северный,
  • СВ - северо-восточный, В - восточный, ЮВ - юго-восточный, Ю - южный, ЮЗ - юго-западный, З - западный, СЗ - северо-западный.
  • Видимость - горизонтальная дальность видимости в метрах или километрах. При видимости от 1 до 10 км при отсутствии осадков обычно наблюдается дымка, при ухудшении видимости до 1 км и менее - туман. В сухую погоду видимость может ухудшаться дымом, пылью или мглою.
  • Явления - указаны атмосферные явления, наблюдавшиеся в срок или в последний час перед сроком; фигурными скобками обозначены явления, наблюдавшиеся между сроками (за 1-3 часа до срока); квадратными скобками обозначены град или гололедные отложения с указанием их диаметра в мм.
  • Облачность - указаны через наклонную черту общая и нижняя облачность в баллах и высота нижней границы облаков в метрах; квадратными скобками обозначены формы облаков: Ci - перистые, Cs - перисто-слоистые, Cc - перисто-кучевые, Ac - высококучевые, As - высокослоистые, Sc - слоисто-кучевые, Ns - слоисто-дождевые, Cu - кучевые, Cb - кучево-дождевые. Подробнее классификацию облаков см. в Атласе облаков (PDF).
  • T - Температура воздуха - температура, измеренная на высоте 2 м над землей.
  • Td - Температура точки росы - температура, при понижении до которой содержащийся в воздухе водяной пар достигнет насыщения.
  • f - Относительная влажность воздуха - влажноcть воздуха, измеренная на высоте 2 м над землей.
  • Te - Эффективная температура - температура, которую ощущает одетый по сезону человек в тени. Характеристика душности погоды. При расчете учитывается влияние влажности воздуха и скорости ветра на теплоощущения человека.
  • Tes - Эффективная температура на солнце - температура, которую ощущает человек, с поправкой на солнечный нагрев. Характеристика знойности погоды. Зависит от высоты солнца над горизонтом, облачности и скорости ветра. Ночью, в пасмурную погоду, а также при ветре 12 м/с и более поправка равна нулю.
  • P - Атмосферное давление - приведенное к уровню моря атмосферное давление.
  • Po - Атмосферное давление - измеренное на уровне метеостанции атмосферное давление.
  • Tmin - Минимальная температура - минимум температуры воздуха на высоте 2 м над землей.
  • Tmax - Максимальная температура - максимум температуры воздуха на высоте 2 м над землей.
  • R - Количество осадков - Количество выпавших осадков за период времени, мм. При наведении курсора мыши на число - период времени, за который выпало указанное количество осадков.
  • R24 - Количество осадков - Количество выпавших осадков за 24 часа, мм.
  • S - Снежный покров - Высота снежного покрова, см. При наведении курсора мыши на число - состояние снежного покрова и степень покрытия местности в баллах.